Location: San Martino di Castrozza
(46.2667°N, 11.8000°E)
Time: 03:18:05
(UTC+00:00)

Cosmos 1898 Rocket - Pass Details

Date: 23 April 2021
Orbit: 752 x 784 km, 74.0° (Epoch: 15 May)

Event Time Altitude Azimuth Distance (km) Brightness Sun altitude
Exits shadow 01:59:46 35° 258° (WSW) 1,221 4.1 -20.1°
Maximum altitude 02:01:15 44° 299° (WNW) 1,063 4.1 -19.9°
Drops below altitude 10° 02:06:19 10° 11° (N) 2,336 6.8 -19.3°
Sets 02:08:50 0° 18° (NNE) 3,272 7.8 -18.9°
